| time (UTC) | temp C | wind direction | speed KPH | gust KPH | rain 1hr cm | rain 24hr cm | rain mn cm | humidity % | barometer mb |
| 20260504050534 | 7 | 219 | 0.0 | 3.2 | 0.00 | 0.00 | 0.00 | 47 | 1011.0 |
| 20260504050503 | 12 | 148 | 0.0 | 6.4 | 0.00 | 0.00 | 0.00 | 55 | 1012.3 |
| 20260504050011 | 12 | 136 | 1.6 | 3.2 | 0.00 | 0.00 | 0.00 | 55 | 1012.3 |
| 20260504045531 | 7 | 352 | 0.0 | 0.0 | 0.00 | 0.00 | 0.00 | 50 | 1011.1 |
| 20260504045503 | 12 | 113 | 1.6 | 4.8 | 0.00 | 0.00 | 0.00 | 56 | 1012.3 |
| 20260504045031 | 7 | 352 | 0.0 | 0.0 | 0.00 | 0.00 | 0.00 | 51 | 1011.1 |
| 20260504045009 | 12 | 152 | 1.6 | 4.8 | 0.00 | 0.00 | 0.00 | 55 | 1012.3 |
| 20260504044530 | 7 | 352 | 0.0 | 0.0 | 0.00 | 0.00 | 0.00 | 52 | 1011.2 |
| 20260504044514 | 12 | 159 | 0.0 | 6.4 | 0.00 | 0.00 | 0.00 | 55 | 1012.3 |
| 20260504044010 | 12 | 138 | 1.6 | 6.4 | 0.00 | 0.00 | 0.00 | 55 | 1012.4 |
| 20260504043530 | 7 | 355 | 0.0 | 0.0 | 0.00 | 0.00 | 0.00 | 54 | 1011.1 |
| 20260504043507 | 12 | 165 | 1.6 | 6.4 | 0.00 | 0.00 | 0.00 | 55 | 1012.4 |
| 20260504043030 | 7 | 355 | 0.0 | 0.0 | 0.00 | 0.00 | 0.00 | 54 | 1011.1 |
| 20260504043020 | 12 | 314 | 0.0 | 4.8 | 0.00 | 0.00 | 0.00 | 55 | 1012.5 |
| 20260504042529 | 7 | 355 | 0.0 | 0.0 | 0.00 | 0.00 | 0.00 | 53 | 1010.9 |
| 20260504042508 | 12 | 146 | 0.0 | 9.7 | 0.00 | 0.00 | 0.00 | 55 | 1012.5 |
| 20260504042028 | 7 | 355 | 0.0 | 0.0 | 0.00 | 0.00 | 0.00 | 52 | 1011.0 |
| 20260504042010 | 12 | 143 | 0.0 | 9.7 | 0.00 | 0.00 | 0.00 | 54 | 1012.5 |
| 20260504041527 | 7 | 355 | 0.0 | 0.0 | 0.00 | 0.00 | 0.00 | 51 | 1010.8 |
| 20260504041522 | 12 | 127 | 1.6 | 8.0 | 0.00 | 0.00 | 0.00 | 53 | 1012.5 |
| 20260504041027 | 7 | 355 | 0.0 | 0.0 | 0.00 | 0.00 | 0.00 | 50 | 1010.8 |
| 20260504041004 | 12 | 117 | 0.0 | 8.0 | 0.00 | 0.00 | 0.00 | 53 | 1012.5 |
| 20260504040525 | 7 | 355 | 0.0 | 0.0 | 0.00 | 0.00 | 0.00 | 51 | 1010.7 |
| 20260504040502 | 12 | 149 | 3.2 | 6.4 | 0.00 | 0.00 | 0.00 | 54 | 1012.5 |
| 20260504040027 | 7 | 355 | 0.0 | 0.0 | 0.00 | 0.00 | 0.00 | 50 | 1010.7 |
| 20260504040022 | 12 | 145 | 1.6 | 4.8 | 0.00 | 0.00 | 0.00 | 54 | 1012.6 |
| 20260504035529 | 7 | 355 | 0.0 | 0.0 | 0.00 | 0.00 | 0.00 | 49 | 1010.7 |
| 20260504035506 | 12 | 136 | 1.6 | 8.0 | 0.00 | 0.00 | 0.00 | 54 | 1012.8 |
| 20260504035025 | 7 | 355 | 0.0 | 0.0 | 0.00 | 0.00 | 0.00 | 49 | 1010.9 |
| 20260504035008 | 12 | 151 | 1.6 | 8.0 | 0.00 | 0.00 | 0.00 | 53 | 1012.9 |
| 20260504034532 | 7 | 355 | 0.0 | 0.0 | 0.00 | 0.00 | 0.00 | 48 | 1010.8 |
| 20260504034511 | 12 | 160 | 0.0 | 6.4 | 0.00 | 0.00 | 0.00 | 54 | 1012.9 |
| 20260504034006 | 12 | 149 | 1.6 | 8.0 | 0.00 | 0.00 | 0.00 | 53 | 1012.9 |
| 20260504033523 | 7 | 355 | 0.0 | 0.0 | 0.00 | 0.00 | 0.00 | 47 | 1010.8 |
| 20260504033506 | 12 | 146 | 1.6 | 8.0 | 0.00 | 0.00 | 0.00 | 53 | 1013.0 |
| 20260504033036 | 7 | 355 | 0.0 | 0.0 | 0.00 | 0.00 | 0.00 | 46 | 1010.8 |
| 20260504033019 | 12 | 144 | 0.0 | 4.8 | 0.00 | 0.00 | 0.00 | 54 | 1013.0 |
| 20260504032523 | 7 | 355 | 0.0 | 0.0 | 0.00 | 0.00 | 0.00 | 48 | 1010.7 |
| 20260504032508 | 12 | 139 | 1.6 | 8.0 | 0.00 | 0.00 | 0.00 | 54 | 1013.0 |
| 20260504032023 | 7 | 354 | 0.0 | 0.0 | 0.00 | 0.00 | 0.00 | 46 | 1010.8 |
| 20260504032003 | 12 | 139 | 1.6 | 8.0 | 0.00 | 0.00 | 0.00 | 54 | 1013.0 |
| 20260504031529 | 8 | 354 | 0.0 | 0.0 | 0.00 | 0.00 | 0.00 | 48 | 1010.8 |
| 20260504031504 | 12 | 129 | 0.0 | 3.2 | 0.00 | 0.00 | 0.00 | 54 | 1013.0 |
| 20260504031022 | 8 | 354 | 0.0 | 0.0 | 0.00 | 0.00 | 0.00 | 47 | 1010.8 |
| 20260504031004 | 12 | 149 | 0.0 | 3.2 | 0.00 | 0.00 | 0.00 | 55 | 1013.0 |
| 20260504030523 | 8 | 354 | 0.0 | 0.0 | 0.00 | 0.00 | 0.00 | 47 | 1010.7 |
| 20260504030503 | 12 | 122 | 0.0 | 4.8 | 0.00 | 0.00 | 0.00 | 55 | 1013.0 |
| 20260504030022 | 8 | 354 | 0.0 | 0.0 | 0.00 | 0.00 | 0.00 | 46 | 1010.7 |
| 20260504030008 | 12 | 155 | 0.0 | 4.8 | 0.00 | 0.00 | 0.00 | 58 | 1013.1 |
| 20260504025522 | 8 | 354 | 0.0 | 0.0 | 0.00 | 0.00 | 0.00 | 45 | 1010.7 |
| 20260504025504 | 12 | 146 | 0.0 | 4.8 | 0.00 | 0.00 | 0.00 | 56 | 1013.0 |
| 20260504025022 | 8 | 354 | 0.0 | 0.0 | 0.00 | 0.00 | 0.00 | 47 | 1010.7 |
| 20260504025006 | 12 | 148 | 1.6 | 4.8 | 0.00 | 0.00 | 0.00 | 58 | 1013.1 |
| 20260504024539 | 8 | 354 | 0.0 | 0.0 | 0.00 | 0.00 | 0.00 | 45 | 1010.7 |
| 20260504024509 | 12 | 145 | 0.0 | 4.8 | 0.00 | 0.00 | 0.00 | 55 | 1013.1 |
| 20260504024004 | 12 | 131 | 0.0 | 4.8 | 0.00 | 0.00 | 0.00 | 56 | 1013.1 |
| 20260504023524 | 8 | 354 | 0.0 | 0.0 | 0.00 | 0.00 | 0.00 | 46 | 1010.7 |
| 20260504023506 | 12 | 145 | 1.6 | 4.8 | 0.00 | 0.00 | 0.00 | 56 | 1013.1 |
| 20260504023024 | 8 | 354 | 0.0 | 0.0 | 0.00 | 0.00 | 0.00 | 44 | 1010.8 |
| 20260504023014 | 12 | 136 | 0.0 | 4.8 | 0.00 | 0.00 | 0.00 | 58 | 1013.1 |
| 20260504022524 | 8 | 354 | 0.0 | 0.0 | 0.00 | 0.00 | 0.00 | 46 | 1010.7 |
| 20260504022504 | 12 | 138 | 0.0 | 4.8 | 0.00 | 0.00 | 0.00 | 58 | 1013.2 |
| 20260504022023 | 8 | 354 | 0.0 | 0.0 | 0.00 | 0.00 | 0.00 | 44 | 1010.7 |
| 20260504022004 | 12 | 134 | 0.0 | 3.2 | 0.00 | 0.00 | 0.00 | 57 | 1013.1 |
| 20260504021523 | 8 | 354 | 0.0 | 0.0 | 0.00 | 0.00 | 0.00 | 44 | 1010.7 |
| 20260504021520 | 12 | 338 | 0.0 | 3.2 | 0.00 | 0.00 | 0.00 | 58 | 1013.0 |
| 20260504021023 | 8 | 354 | 0.0 | 0.0 | 0.00 | 0.00 | 0.00 | 44 | 1010.8 |
| 20260504021006 | 12 | 124 | 0.0 | 3.2 | 0.00 | 0.00 | 0.00 | 56 | 1012.9 |
| 20260504020523 | 8 | 354 | 0.0 | 0.0 | 0.00 | 0.00 | 0.00 | 46 | 1010.8 |
| 20260504020503 | 12 | 141 | 1.6 | 3.2 | 0.00 | 0.00 | 0.00 | 56 | 1012.9 |
| 20260504020023 | 8 | 354 | 0.0 | 0.0 | 0.00 | 0.00 | 0.00 | 45 | 1010.8 |
| 20260504020004 | 12 | 108 | 0.0 | 3.2 | 0.00 | 0.00 | 0.00 | 58 | 1012.8 |
| 20260504015523 | 9 | 354 | 0.0 | 0.0 | 0.00 | 0.00 | 0.00 | 47 | 1010.7 |
| 20260504015503 | 12 | 139 | 0.0 | 3.2 | 0.00 | 0.00 | 0.00 | 56 | 1012.9 |
| 20260504015022 | 9 | 354 | 0.0 | 0.0 | 0.00 | 0.00 | 0.00 | 45 | 1010.7 |
| 20260504015003 | 12 | 22 | 1.6 | 3.2 | 0.00 | 0.00 | 0.00 | 58 | 1012.9 |
| 20260504014522 | 9 | 354 | 0.0 | 0.0 | 0.00 | 0.00 | 0.00 | 43 | 1010.7 |
| 20260504014518 | 12 | 151 | 0.0 | 3.2 | 0.00 | 0.00 | 0.00 | 58 | 1012.9 |
| 20260504014002 | 12 | 130 | 0.0 | 4.8 | 0.00 | 0.00 | 0.00 | 57 | 1012.8 |
| 20260504013520 | 9 | 354 | 0.0 | 0.0 | 0.00 | 0.00 | 0.00 | 43 | 1010.6 |
| 20260504013505 | 12 | 141 | 0.0 | 4.8 | 0.00 | 0.00 | 0.00 | 57 | 1012.9 |
| 20260504013019 | 9 | 354 | 0.0 | 0.0 | 0.00 | 0.00 | 0.00 | 42 | 1010.5 |
| 20260504013010 | 12 | 136 | 0.0 | 3.2 | 0.00 | 0.00 | 0.00 | 60 | 1012.9 |
| 20260504012619 | 10 | 354 | 0.0 | 0.0 | 0.00 | 0.00 | 0.00 | 42 | 1010.5 |
| 20260504012509 | 12 | 136 | 0.0 | 3.2 | 0.00 | 0.00 | 0.00 | 57 | 1012.7 |
| 20260504012020 | 10 | 360 | 0.0 | 0.0 | 0.00 | 0.00 | 0.00 | 41 | 1010.4 |
| 20260504012008 | 12 | 139 | 1.6 | 6.4 | 0.00 | 0.00 | 0.00 | 58 | 1012.6 |
| 20260504011519 | 10 | 360 | 0.0 | 0.0 | 0.00 | 0.00 | 0.00 | 40 | 1010.3 |
| 20260504011515 | 12 | 297 | 0.0 | 6.4 | 0.00 | 0.00 | 0.00 | 57 | 1012.6 |
| 20260504011018 | 10 | 360 | 0.0 | 0.0 | 0.00 | 0.00 | 0.00 | 39 | 1010.3 |
| 20260504011010 | 12 | 89 | 3.2 | 6.4 | 0.00 | 0.00 | 0.00 | 57 | 1012.7 |
| 20260504010519 | 10 | 355 | 0.0 | 0.0 | 0.00 | 0.00 | 0.00 | 40 | 1010.3 |
| 20260504010507 | 12 | 149 | 3.2 | 4.8 | 0.00 | 0.00 | 0.00 | 56 | 1012.7 |
| 20260504010021 | 13 | 146 | 1.6 | 6.4 | 0.00 | 0.00 | 0.00 | 56 | 1013.0 |
| 20260504010018 | 10 | 355 | 0.0 | 0.0 | 0.00 | 0.00 | 0.00 | 40 | 1010.2 |
| 20260504005519 | 10 | 355 | 0.0 | 0.0 | 0.00 | 0.00 | 0.00 | 40 | 1010.2 |
| 20260504005505 | 13 | 131 | 1.6 | 6.4 | 0.00 | 0.00 | 0.00 | 53 | 1013.1 |
| 20260504005019 | 11 | 355 | 0.0 | 0.0 | 0.00 | 0.00 | 0.00 | 38 | 1010.1 |
| 20260504005002 | 13 | 138 | 1.6 | 6.4 | 0.00 | 0.00 | 0.00 | 50 | 1013.2 |
| 20260504004534 | 11 | 355 | 0.0 | 0.0 | 0.00 | 0.00 | 0.00 | 37 | 1010.0 |
| 20260504004504 | 13 | 132 | 0.0 | 6.4 | 0.00 | 0.00 | 0.00 | 48 | 1013.1 |
| 20260504004002 | 14 | 135 | 0.0 | 8.0 | 0.00 | 0.00 | 0.00 | 48 | 1013.0 |
| 20260504003518 | 11 | 355 | 0.0 | 0.0 | 0.00 | 0.00 | 0.00 | 35 | 1010.0 |
| 20260504003503 | 14 | 117 | 3.2 | 9.7 | 0.00 | 0.00 | 0.00 | 46 | 1013.0 |
| 20260504003018 | 11 | 355 | 0.0 | 0.0 | 0.00 | 0.00 | 0.00 | 35 | 1009.9 |
| 20260504003009 | 14 | 133 | 1.6 | 9.7 | 0.00 | 0.00 | 0.00 | 46 | 1013.0 |
| 20260504002518 | 12 | 355 | 0.0 | 0.0 | 0.00 | 0.00 | 0.00 | 33 | 1009.8 |
| 20260504002503 | 15 | 68 | 0.0 | 6.4 | 0.00 | 0.00 | 0.00 | 42 | 1012.9 |
| 20260504002018 | 12 | 355 | 0.0 | 0.0 | 0.00 | 0.00 | 0.00 | 32 | 1009.8 |
| 20260504002006 | 15 | 86 | 3.2 | 12.9 | 0.00 | 0.00 | 0.00 | 41 | 1013.0 |
| 20260504001517 | 12 | 355 | 0.0 | 0.0 | 0.00 | 0.00 | 0.00 | 29 | 1009.7 |
| 20260504001513 | 15 | 143 | 1.6 | 12.9 | 0.00 | 0.00 | 0.00 | 41 | 1013.0 |
| 20260504001022 | 12 | 355 | 0.0 | 0.0 | 0.00 | 0.00 | 0.00 | 28 | 1009.6 |
| 20260504001007 | 15 | 139 | 6.4 | 14.5 | 0.00 | 0.00 | 0.00 | 40 | 1012.8 |
| 20260504000521 | 12 | 355 | 0.0 | 0.0 | 0.00 | 0.00 | 0.00 | 28 | 1009.5 |
| 20260504000507 | 15 | 162 | 3.2 | 14.5 | 0.00 | 0.00 | 0.00 | 43 | 1012.7 |
| 20260504000018 | 12 | 360 | 0.0 | 0.0 | 0.00 | 0.00 | 0.00 | 26 | 1009.5 |
| 20260504000016 | 15 | 134 | 1.6 | 6.4 | 0.00 | 0.00 | 0.00 | 40 | 1012.6 |
| 20260503235516 | 13 | 360 | 0.0 | 0.0 | 0.00 | 0.00 | 0.00 | 25 | 1009.4 |
| 20260503235508 | 15 | 145 | 1.6 | 6.4 | 0.00 | 0.00 | 0.00 | 38 | 1012.6 |
| 20260503235017 | 13 | 355 | 0.0 | 1.6 | 0.00 | 0.00 | 0.00 | 25 | 1009.3 |
| 20260503235008 | 15 | 142 | 1.6 | 11.3 | 0.00 | 0.00 | 0.00 | 38 | 1012.7 |
| 20260503234523 | 15 | 127 | 3.2 | 11.3 | 0.00 | 0.00 | 0.00 | 38 | 1012.7 |
| 20260503234517 | 13 | 355 | 0.0 | 1.6 | 0.00 | 0.00 | 0.00 | 26 | 1009.2 |
| 20260503234017 | 13 | 355 | 0.0 | 0.0 | 0.00 | 0.00 | 0.00 | 26 | 1009.1 |
| 20260503234006 | 15 | 131 | 1.6 | 9.7 | 0.00 | 0.00 | 0.00 | 38 | 1012.7 |
| 20260503233516 | 13 | 355 | 0.0 | 1.6 | 0.00 | 0.00 | 0.00 | 26 | 1009.0 |
| 20260503233505 | 15 | 137 | 1.6 | 9.7 | 0.00 | 0.00 | 0.00 | 39 | 1012.6 |
| 20260503233017 | 13 | 355 | 0.0 | 1.6 | 0.00 | 0.00 | 0.00 | 26 | 1009.0 |
| 20260503233003 | 15 | 120 | 1.6 | 9.7 | 0.00 | 0.00 | 0.00 | 38 | 1012.5 |
| 20260503232515 | 13 | 354 | 0.0 | 3.2 | 0.00 | 0.00 | 0.00 | 26 | 1008.9 |
| 20260503232503 | 15 | 138 | 0.0 | 11.3 | 0.00 | 0.00 | 0.00 | 40 | 1012.7 |
| 20260503232016 | 13 | 353 | 0.0 | 4.8 | 0.00 | 0.00 | 0.00 | 26 | 1009.0 |
| 20260503232005 | 15 | 17 | 1.6 | 11.3 | 0.00 | 0.00 | 0.00 | 37 | 1012.9 |
| 20260503231516 | 13 | 293 | 0.0 | 4.8 | 0.00 | 0.00 | 0.00 | 23 | 1008.9 |
| 20260503231509 | 15 | 311 | 1.6 | 11.3 | 0.00 | 0.00 | 0.00 | 40 | 1013.1 |
| 20260503231003 | 15 | 134 | 3.2 | 9.7 | 0.00 | 0.00 | 0.00 | 38 | 1013.1 |
| 20260503230516 | 14 | 240 | 0.0 | 3.2 | 0.00 | 0.00 | 0.00 | 24 | 1008.8 |
| 20260503230508 | 15 | 137 | 3.2 | 11.3 | 0.00 | 0.00 | 0.00 | 38 | 1013.2 |
| 20260503230016 | 14 | 285 | 0.0 | 4.8 | 0.00 | 0.00 | 0.00 | 23 | 1008.8 |
| 20260503225515 | 14 | 285 | 1.6 | 4.8 | 0.00 | 0.00 | 0.00 | 22 | 1008.8 |
| 20260503225506 | 15 | 91 | 4.8 | 9.7 | 0.00 | 0.00 | 0.00 | 37 | 1013.4 |
| 20260503225014 | 14 | 129 | 0.0 | 6.4 | 0.00 | 0.00 | 0.00 | 25 | 1008.7 |
| 20260503225012 | 15 | 198 | 1.6 | 12.9 | 0.00 | 0.00 | 0.00 | 38 | 1013.5 |
| 20260503224518 | 15 | 85 | 3.2 | 12.9 | 0.00 | 0.00 | 0.00 | 37 | 1013.7 |
| 20260503224514 | 14 | 128 | 1.6 | 6.4 | 0.00 | 0.00 | 0.00 | 24 | 1008.7 |
| 20260503224014 | 14 | 274 | 0.0 | 4.8 | 0.00 | 0.00 | 0.00 | 23 | 1008.6 |
| 20260503224008 | 15 | 152 | 1.6 | 11.3 | 0.00 | 0.00 | 0.00 | 37 | 1013.9 |
| 20260503223513 | 14 | 274 | 0.0 | 4.8 | 0.00 | 0.00 | 0.00 | 24 | 1008.6 |
| 20260503223509 | 16 | 127 | 4.8 | 11.3 | 0.00 | 0.00 | 0.00 | 36 | 1013.9 |
| 20260503223019 | 16 | 140 | 0.0 | 11.3 | 0.00 | 0.00 | 0.00 | 40 | 1013.9 |
| 20260503223014 | 14 | 289 | 1.6 | 6.4 | 0.00 | 0.00 | 0.00 | 21 | 1008.6 |
| 20260503222514 | 14 | 300 | 0.0 | 6.4 | 0.00 | 0.00 | 0.00 | 22 | 1008.6 |
| 20260503222508 | 16 | 1 | 1.6 | 12.9 | 0.00 | 0.00 | 0.00 | 37 | 1013.9 |
| 20260503222015 | 14 | 359 | 1.6 | 11.3 | 0.00 | 0.00 | 0.00 | 21 | 1008.7 |
| 20260503222003 | 16 | 170 | 3.2 | 12.9 | 0.00 | 0.00 | 0.00 | 37 | 1014.0 |
| 20260503221516 | 14 | 311 | 1.6 | 6.4 | 0.00 | 0.00 | 0.00 | 21 | 1008.7 |
| 20260503221507 | 16 | 152 | 1.6 | 9.7 | 0.00 | 0.00 | 0.00 | 38 | 1014.1 |
| 20260503221006 | 16 | 142 | 3.2 | 14.5 | 0.00 | 0.00 | 0.00 | 37 | 1014.1 |
| 20260503220514 | 14 | 271 | 1.6 | 8.0 | 0.00 | 0.00 | 0.00 | 23 | 1008.7 |
| 20260503220504 | 16 | 100 | 6.4 | 14.5 | 0.00 | 0.00 | 0.00 | 35 | 1014.3 |
| 20260503220016 | 14 | 291 | 1.6 | 8.0 | 0.00 | 0.00 | 0.00 | 20 | 1008.7 |
| 20260503220010 | 16 | 145 | 3.2 | 14.5 | 0.00 | 0.00 | 0.00 | 37 | 1014.3 |
| 20260503215614 | 14 | 179 | 1.6 | 6.4 | 0.00 | 0.00 | 0.00 | 20 | 1008.7 |
| 20260503215504 | 16 | 104 | 4.8 | 11.3 | 0.00 | 0.00 | 0.00 | 37 | 1014.4 |
| 20260503215013 | 14 | 318 | 1.6 | 4.8 | 0.00 | 0.00 | 0.00 | 20 | 1008.7 |
| 20260503215006 | 16 | 137 | 4.8 | 11.3 | 0.00 | 0.00 | 0.00 | 36 | 1014.4 |
| 20260503214512 | 14 | 104 | 1.6 | 6.4 | 0.00 | 0.00 | 0.00 | 20 | 1008.8 |
| 20260503214014 | 14 | 273 | 1.6 | 8.0 | 0.00 | 0.00 | 0.00 | 19 | 1008.9 |
| 20260503214008 | 16 | 147 | 0.0 | 9.7 | 0.00 | 0.00 | 0.00 | 38 | 1014.4 |
| 20260503213514 | 14 | 275 | 1.6 | 9.7 | 0.00 | 0.00 | 0.00 | 20 | 1008.8 |
| 20260503213511 | 16 | 114 | 6.4 | 12.9 | 0.00 | 0.00 | 0.00 | 36 | 1014.4 |
| 20260503213019 | 16 | 147 | 4.8 | 17.7 | 0.00 | 0.00 | 0.00 | 38 | 1014.4 |
| 20260503213017 | 14 | 319 | 1.6 | 9.7 | 0.00 | 0.00 | 0.00 | 19 | 1008.8 |
| 20260503212513 | 14 | 131 | 0.0 | 6.4 | 0.00 | 0.00 | 0.00 | 20 | 1008.7 |
| 20260503212508 | 16 | 127 | 3.2 | 17.7 | 0.00 | 0.00 | 0.00 | 37 | 1014.4 |
| 20260503212014 | 14 | 266 | 1.6 | 8.0 | 0.00 | 0.00 | 0.00 | 22 | 1008.7 |
| 20260503212008 | 16 | 154 | 3.2 | 8.0 | 0.00 | 0.00 | 0.00 | 36 | 1014.5 |
| 20260503211520 | 16 | 126 | 3.2 | 8.0 | 0.00 | 0.00 | 0.00 | 35 | 1014.6 |
| 20260503211511 | 14 | 294 | 1.6 | 8.0 | 0.00 | 0.00 | 0.00 | 22 | 1008.9 |
| 20260503211011 | 16 | 134 | 3.2 | 8.0 | 0.00 | 0.00 | 0.00 | 37 | 1014.7 |
| 20260503210512 | 14 | 125 | 1.6 | 8.0 | 0.00 | 0.00 | 0.00 | 19 | 1008.6 |
| 20260503210504 | 16 | 134 | 1.6 | 12.9 | 0.00 | 0.00 | 0.00 | 36 | 1014.9 |
| 20260503210011 | 14 | 243 | 0.0 | 6.4 | 0.00 | 0.00 | 0.00 | 23 | 1008.6 |
| 20260503210006 | 16 | 127 | 4.8 | 14.5 | 0.00 | 0.00 | 0.00 | 39 | 1015.0 |
| 20260503205517 | 14 | 106 | 1.6 | 6.4 | 0.00 | 0.00 | 0.00 | 22 | 1008.6 |
| 20260503205507 | 16 | 116 | 3.2 | 19.3 | 0.00 | 0.00 | 0.00 | 37 | 1015.0 |
| 20260503205011 | 14 | 247 | 1.6 | 6.4 | 0.00 | 0.00 | 0.00 | 19 | 1008.6 |
| 20260503205007 | 16 | 151 | 6.4 | 19.3 | 0.00 | 0.00 | 0.00 | 36 | 1015.0 |
| 20260503204513 | 16 | 131 | 4.8 | 14.5 | 0.00 | 0.00 | 0.00 | 35 | 1015.1 |
| 20260503204511 | 14 | 266 | 1.6 | 8.0 | 0.00 | 0.00 | 0.00 | 19 | 1008.6 |
| 20260503204010 | 14 | 288 | 3.2 | 8.0 | 0.00 | 0.00 | 0.00 | 22 | 1008.7 |
| 20260503203510 | 13 | 249 | 1.6 | 12.9 | 0.00 | 0.00 | 0.00 | 21 | 1008.7 |
| 20260503203505 | 17 | 169 | 3.2 | 16.1 | 0.00 | 0.00 | 0.00 | 36 | 1015.0 |
| 20260503203016 | 17 | 143 | 3.2 | 16.1 | 0.00 | 0.00 | 0.00 | 36 | 1015.1 |
| 20260503203011 | 14 | 266 | 1.6 | 12.9 | 0.00 | 0.00 | 0.00 | 21 | 1008.7 |
| 20260503202510 | 14 | 321 | 1.6 | 6.4 | 0.00 | 0.00 | 0.00 | 21 | 1008.7 |
| 20260503202009 | 17 | 134 | 4.8 | 11.3 | 0.00 | 0.00 | 0.00 | 35 | 1015.1 |
| 20260503201520 | 17 | 133 | 4.8 | 12.9 | 0.00 | 0.00 | 0.00 | 37 | 1015.1 |
| 20260503201510 | 14 | 283 | 1.6 | 8.0 | 0.00 | 0.00 | 0.00 | 21 | 1008.9 |
| 20260503201008 | 17 | 128 | 4.8 | 12.9 | 0.00 | 0.00 | 0.00 | 38 | 1015.1 |
| 20260503200512 | 14 | 310 | 1.6 | 9.7 | 0.00 | 0.00 | 0.00 | 24 | 1008.9 |
| 20260503200023 | 17 | 297 | 1.6 | 9.7 | 0.00 | 0.00 | 0.00 | 38 | 1015.2 |
| 20260503200009 | 14 | 288 | 1.6 | 9.7 | 0.00 | 0.00 | 0.00 | 22 | 1008.9 |
| 20260503195510 | 16 | 152 | 3.2 | 9.7 | 0.00 | 0.00 | 0.00 | 35 | 1015.4 |
| 20260503195007 | 14 | 275 | 1.6 | 8.0 | 0.00 | 0.00 | 0.00 | 23 | 1008.9 |
| 20260503194508 | 15 | 108 | 4.8 | 19.3 | 0.00 | 0.00 | 0.00 | 36 | 1015.6 |
| 20260503194007 | 16 | 164 | 6.4 | 12.9 | 0.00 | 0.00 | 0.00 | 36 | 1015.8 |
| 20260503193510 | 13 | 54 | 3.2 | 12.9 | 0.00 | 0.00 | 0.00 | 22 | 1009.1 |
| 20260503193507 | 16 | 121 | 3.2 | 11.3 | 0.00 | 0.00 | 0.00 | 39 | 1016.1 |
| 20260503193031 | 16 | 324 | 1.6 | 11.3 | 0.00 | 0.00 | 0.00 | 35 | 1016.1 |
| 20260503193020 | 13 | 276 | 1.6 | 11.3 | 0.00 | 0.00 | 0.00 | 21 | 1009.2 |
| 20260503192508 | 13 | 297 | 3.2 | 11.3 | 0.00 | 0.00 | 0.00 | 23 | 1009.4 |
| 20260503192505 | 16 | 149 | 3.2 | 16.1 | 0.00 | 0.00 | 0.00 | 36 | 1016.3 |
| 20260503192008 | 16 | 57 | 4.8 | 16.1 | 0.00 | 0.00 | 0.00 | 34 | 1016.4 |
| 20260503192005 | 13 | 329 | 3.2 | 11.3 | 0.00 | 0.00 | 0.00 | 21 | 1009.4 |
| 20260503191517 | 17 | 262 | 3.2 | 14.5 | 0.00 | 0.00 | 0.00 | 35 | 1016.3 |
| 20260503191505 | 13 | 240 | 1.6 | 9.7 | 0.00 | 0.00 | 0.00 | 24 | 1009.3 |
| 20260503191012 | 16 | 138 | 4.8 | 17.7 | 0.00 | 0.00 | 0.00 | 34 | 1016.5 |
| 20260503190510 | 16 | 54 | 4.8 | 17.7 | 0.00 | 0.00 | 0.00 | 33 | 1016.6 |
| 20260503190503 | 13 | 266 | 3.2 | 9.7 | 0.00 | 0.00 | 0.00 | 25 | 1009.4 |
| 20260503190024 | 17 | 143 | 6.4 | 11.3 | 0.00 | 0.00 | 0.00 | 33 | 1016.6 |
| 20260503190004 | 13 | 192 | 1.6 | 8.0 | 0.00 | 0.00 | 0.00 | 25 | 1009.4 |
| 20260503185506 | 17 | 356 | 3.2 | 16.1 | 0.00 | 0.00 | 0.00 | 35 | 1016.6 |
| 20260503185503 | 13 | 281 | 1.6 | 8.0 | 0.00 | 0.00 | 0.00 | 26 | 1009.5 |
| 20260503185012 | 16 | 86 | 6.4 | 16.1 | 0.00 | 0.00 | 0.00 | 33 | 1016.6 |
| 20260503185002 | 13 | 265 | 0.0 | 6.4 | 0.00 | 0.00 | 0.00 | 26 | 1009.3 |
| 20260503184525 | 16 | 355 | 3.2 | 19.3 | 0.00 | 0.00 | 0.00 | 38 | 1016.7 |
| 20260503184503 | 13 | 266 | 1.6 | 8.0 | 0.00 | 0.00 | 0.00 | 24 | 1009.3 |
| 20260503184009 | 16 | 143 | 4.8 | 19.3 | 0.00 | 0.00 | 0.00 | 33 | 1016.8 |
| 20260503184003 | 13 | 139 | 1.6 | 6.4 | 0.00 | 0.00 | 0.00 | 26 | 1009.4 |
| 20260503183502 | 13 | 270 | 1.6 | 9.7 | 0.00 | 0.00 | 0.00 | 24 | 1009.4 |
| 20260503183012 | 16 | 108 | 4.8 | 14.5 | 0.00 | 0.00 | 0.00 | 34 | 1017.0 |
| 20260503183002 | 13 | 126 | 3.2 | 9.7 | 0.00 | 0.00 | 0.00 | 26 | 1009.6 |
| 20260503182507 | 16 | 160 | 3.2 | 16.1 | 0.00 | 0.00 | 0.00 | 38 | 1017.0 |
| 20260503182500 | 13 | 269 | 1.6 | 6.4 | 0.00 | 0.00 | 0.00 | 25 | 1009.6 |
| 20260503182100 | 13 | 229 | 1.6 | 8.0 | 0.00 | 0.00 | 0.00 | 25 | 1009.5 |
| 20260503182006 | 16 | 114 | 3.2 | 16.1 | 0.00 | 0.00 | 0.00 | 36 | 1017.1 |
| 20260503181602 | 13 | 240 | 1.6 | 16.1 | 0.00 | 0.00 | 0.00 | 26 | 1009.5 |
| 20260503181512 | 16 | 110 | 6.4 | 11.3 | 0.00 | 0.00 | 0.00 | 35 | 1017.1 |
| 20260503181159 | 12 | 322 | 3.2 | 9.7 | 0.00 | 0.00 | 0.00 | 25 | 1009.6 |
| 20260503181008 | 16 | 143 | 4.8 | 12.9 | 0.00 | 0.00 | 0.00 | 37 | 1017.2 |
| 20260503180557 | 12 | 308 | 1.6 | 8.0 | 0.00 | 0.00 | 0.00 | 28 | 1009.7 |
| 20260503180508 | 16 | 127 | 3.2 | 16.1 | 0.00 | 0.00 | 0.00 | 37 | 1017.2 |
| 20260503180057 | 12 | 226 | 0.0 | 6.4 | 0.00 | 0.00 | 0.00 | 30 | 1009.8 |
| 20260503180021 | 16 | 31 | 6.4 | 16.1 | 0.00 | 0.00 | 0.00 | 38 | 1017.3 |
| 20260503175556 | 12 | 360 | 0.0 | 8.0 | 0.00 | 0.00 | 0.00 | 30 | 1009.7 |
| 20260503175509 | 16 | 329 | 3.2 | 20.9 | 0.00 | 0.00 | 0.00 | 36 | 1017.3 |
| 20260503175055 | 12 | 219 | 1.6 | 8.0 | 0.00 | 0.00 | 0.00 | 30 | 1009.9 |
| 20260503175007 | 16 | 114 | 4.8 | 20.9 | 0.00 | 0.00 | 0.00 | 38 | 1017.4 |
| 20260503174612 | 12 | 298 | 1.6 | 9.7 | 0.00 | 0.00 | 0.00 | 26 | 1009.9 |
| 20260503174529 | 15 | 126 | 4.8 | 14.5 | 0.00 | 0.00 | 0.00 | 36 | 1017.5 |
| 20260503174055 | 12 | 270 | 1.6 | 9.7 | 0.00 | 0.00 | 0.00 | 33 | 1010.1 |
| 20260503174007 | 15 | 314 | 4.8 | 12.9 | 0.00 | 0.00 | 0.00 | 37 | 1017.5 |
| 20260503173555 | 11 | 262 | 0.0 | 6.4 | 0.00 | 0.00 | 0.00 | 31 | 1010.0 |
| 20260503173511 | 15 | 134 | 6.4 | 16.1 | 0.00 | 0.00 | 0.00 | 37 | 1017.6 |
| 20260503173057 | 11 | 226 | 1.6 | 11.3 | 0.00 | 0.00 | 0.00 | 32 | 1010.2 |
| 20260503173027 | 15 | 106 | 4.8 | 16.1 | 0.00 | 0.00 | 0.00 | 37 | 1017.7 |
| 20260503172555 | 11 | 360 | 0.0 | 11.3 | 0.00 | 0.00 | 0.00 | 34 | 1010.1 |
| 20260503172509 | 15 | 120 | 8.0 | 16.1 | 0.00 | 0.00 | 0.00 | 34 | 1017.9 |
| 20260503172055 | 11 | 360 | 3.2 | 8.0 | 0.00 | 0.00 | 0.00 | 31 | 1010.1 |
| 20260503172003 | 15 | 122 | 8.0 | 16.1 | 0.00 | 0.00 | 0.00 | 35 | 1018.0 |
| 20260503171554 | 11 | 284 | 3.2 | 8.0 | 0.00 | 0.00 | 0.00 | 30 | 1010.0 |
| 20260503171521 | 15 | 131 | 4.8 | 12.9 | 0.00 | 0.00 | 0.00 | 35 | 1018.1 |
| 20260503171155 | 11 | 360 | 0.0 | 6.4 | 0.00 | 0.00 | 0.00 | 32 | 1010.2 |
| 20260503171008 | 15 | 143 | 6.4 | 12.9 | 0.00 | 0.00 | 0.00 | 35 | 1018.2 |
| 20260503170555 | 11 | 203 | 1.6 | 6.4 | 0.00 | 0.00 | 0.00 | 32 | 1010.1 |
| 20260503170506 | 15 | 129 | 4.8 | 14.5 | 0.00 | 0.00 | 0.00 | 35 | 1018.2 |
| 20260503151002 | 12 | 154 | 1.6 | 12.9 | 0.00 | 0.00 | 0.00 | 52 | 1019.5 |
| 20260503150550 | 10 | 350 | 1.6 | 6.4 | 0.00 | 0.00 | 0.00 | 30 | 1010.4 |
| 20260503150507 | 12 | 134 | 4.8 | 12.9 | 0.00 | 0.00 | 0.00 | 51 | 1019.5 |
| 20260503131140 | 10 | 360 | 1.6 | 6.4 | 0.00 | 0.00 | 0.00 | 42 | 1010.3 |
| 20260503131007 | 8 | 130 | 3.2 | 8.0 | 0.00 | 0.00 | 0.00 | 61 | 1019.4 |
| 20260503130540 | 10 | 360 | 0.0 | 6.4 | 0.00 | 0.00 | 0.00 | 39 | 1010.4 |
| 20260503130504 | 7 | 122 | 1.6 | 8.0 | 0.00 | 0.00 | 0.00 | 60 | 1019.4 |
| 20260503110535 | 6 | 108 | 0.0 | 4.8 | 0.00 | 0.00 | 0.00 | 48 | 1010.0 |
| 20260503110503 | 3 | 136 | 0.0 | 3.2 | 0.00 | 0.00 | 0.00 | 76 | 1018.7 |
| 20260503090504 | 1 | 288 | 0.0 | 0.0 | 0.00 | 0.00 | 0.00 | 87 | 1018.3 |
| 20260503081539 | 7 | 240 | 0.0 | 3.2 | 0.00 | 0.00 | 0.00 | 45 | 1009.0 |
| 20260503081507 | 2 | 288 | 0.0 | 0.0 | 0.00 | 0.00 | 0.00 | 87 | 1018.1 |
| 20260503081122 | 7 | 240 | 0.0 | 3.2 | 0.00 | 0.00 | 0.00 | 42 | 1009.0 |
| 20260503081004 | 2 | 288 | 0.0 | 0.0 | 0.00 | 0.00 | 0.00 | 87 | 1018.1 |
| 20260503080519 | 7 | 240 | 0.0 | 3.2 | 0.00 | 0.00 | 0.00 | 42 | 1009.0 |
| 20260503080504 | 2 | 288 | 0.0 | 0.0 | 0.00 | 0.00 | 0.00 | 86 | 1018.1 |
| 20260503072520 | 7 | 172 | 0.0 | 4.8 | 0.00 | 0.00 | 0.00 | 43 | 1009.0 |
| 20260503072503 | 2 | 288 | 0.0 | 0.0 | 0.00 | 0.00 | 0.00 | 87 | 1018.0 |
| 20260503072018 | 7 | 172 | 0.0 | 6.4 | 0.00 | 0.00 | 0.00 | 43 | 1008.8 |
| 20260503072003 | 2 | 288 | 0.0 | 0.0 | 0.00 | 0.00 | 0.00 | 86 | 1018.0 |
| 20260503071531 | 7 | 128 | 0.0 | 6.4 | 0.00 | 0.00 | 0.00 | 44 | 1008.8 |
| 20260503071505 | 2 | 288 | 0.0 | 0.0 | 0.00 | 0.00 | 0.00 | 86 | 1018.0 |
| 20260503071115 | 7 | 195 | 0.0 | 1.6 | 0.00 | 0.00 | 0.00 | 44 | 1009.0 |
| 20260503071004 | 2 | 288 | 0.0 | 0.0 | 0.00 | 0.00 | 0.00 | 86 | 1018.1 |
| 20260503070516 | 7 | 196 | 0.0 | 1.6 | 0.00 | 0.00 | 0.00 | 44 | 1009.0 |
| 20260503070503 | 2 | 288 | 0.0 | 0.0 | 0.00 | 0.00 | 0.00 | 86 | 1018.1 |